| time (UTC) | temp C | wind direction | speed KPH | gust KPH | rain 1hr cm | rain 24hr cm | rain mn cm | humidity % | barometer mb |
| 20260507094456 | 12 | 350 | 0.0 | 0.0 | 0.00 | 0.64 | 0.41 | 94 | 1011.2 |
| 20260507093131 | 12 | 350 | 0.0 | 12.9 | 0.00 | 0.64 | 0.41 | 94 | 1010.8 |
| 20260507091630 | 12 | 355 | 0.0 | 12.9 | 0.00 | 0.64 | 0.41 | 93 | 1011.0 |
| 20260507090130 | 12 | 355 | 0.0 | 11.3 | 0.00 | 0.64 | 0.41 | 94 | 1010.7 |
| 20260507084630 | 12 | 355 | 0.0 | 11.3 | 0.00 | 0.64 | 0.41 | 95 | 1010.7 |
| 20260507084455 | 12 | 333 | 6.4 | 12.9 | 0.00 | 0.64 | 0.41 | 95 | 1010.7 |
| 20260507083129 | 12 | 344 | 0.0 | 11.3 | 0.00 | 0.64 | 0.41 | 95 | 1010.8 |
| 20260507081629 | 12 | 296 | 0.0 | 11.3 | 0.00 | 0.64 | 0.41 | 95 | 1010.4 |
| 20260507080130 | 12 | 327 | 0.0 | 11.3 | 0.00 | 0.64 | 0.41 | 95 | 1010.0 |
| 20260507074629 | 13 | 322 | 0.0 | 11.3 | 0.00 | 0.64 | 0.41 | 95 | 1009.9 |
| 20260507074505 | 13 | 322 | 1.6 | 8.0 | 0.00 | 0.64 | 0.41 | 95 | 1010.0 |
| 20260507073129 | 13 | 24 | 1.6 | 11.3 | 0.00 | 0.64 | 0.41 | 95 | 1009.6 |
| 20260507071629 | 13 | 346 | 1.6 | 11.3 | 0.00 | 0.64 | 0.41 | 95 | 1009.6 |
| 20260507070128 | 13 | 347 | 6.4 | 20.9 | 0.03 | 0.64 | 0.41 | 95 | 1009.6 |
| 20260507064628 | 13 | 71 | 3.2 | 20.9 | 0.03 | 0.64 | 0.41 | 95 | 1009.8 |
| 20260507064444 | 13 | 10 | 0.0 | 11.3 | 0.03 | 0.64 | 0.41 | 95 | 1009.7 |
| 20260507063128 | 13 | 355 | 6.4 | 19.3 | 0.20 | 0.64 | 0.41 | 95 | 1009.3 |
| 20260507061628 | 14 | 300 | 11.3 | 19.3 | 0.20 | 0.64 | 0.41 | 95 | 1008.8 |
| 20260507060127 | 15 | 18 | 0.0 | 11.3 | 0.38 | 0.61 | 0.38 | 95 | 1008.9 |
| 20260507054627 | 15 | 355 | 1.6 | 11.3 | 0.38 | 0.61 | 0.38 | 95 | 1009.4 |
| 20260507054452 | 15 | 355 | 0.0 | 6.4 | 0.38 | 0.61 | 0.38 | 95 | 1009.5 |
| 20260507053127 | 15 | 291 | 1.6 | 8.0 | 0.20 | 0.43 | 0.20 | 94 | 1009.1 |
| 20260507051627 | 15 | 34 | 0.0 | 8.0 | 0.20 | 0.43 | 0.20 | 92 | 1009.2 |
| 20260507050127 | 16 | 290 | 0.0 | 14.5 | 0.00 | 0.23 | 0.00 | 90 | 1009.8 |
| 20260507044626 | 16 | 5 | 0.0 | 14.5 | 0.00 | 0.23 | 0.00 | 89 | 1009.8 |
| 20260507044510 | 17 | 5 | 0.0 | 8.0 | 0.00 | 0.23 | 0.00 | 89 | 1009.7 |
| 20260507043126 | 17 | 14 | 6.4 | 3.2 | 0.00 | 0.23 | 0.00 | 90 | 1009.7 |
| 20260507041626 | 17 | 311 | 11.3 | 3.2 | 0.00 | 0.23 | 0.00 | 92 | 1009.2 |
| 20260507040126 | 18 | 294 | 0.0 | 4.8 | 0.00 | 0.23 | 0.23 | 93 | 1008.9 |
| 20260507034626 | 18 | 294 | 0.0 | 4.8 | 0.00 | 0.23 | 0.23 | 92 | 1008.9 |
| 20260507034512 | 18 | 294 | 0.0 | 0.0 | 0.00 | 0.23 | 0.23 | 92 | 1009.0 |
| 20260507033126 | 18 | 293 | 0.0 | 0.0 | 0.00 | 0.23 | 0.23 | 92 | 1008.7 |
| 20260507031625 | 18 | 133 | 0.0 | 0.0 | 0.00 | 0.23 | 0.23 | 92 | 1008.6 |
| 20260507030125 | 18 | 277 | 0.0 | 6.4 | 0.00 | 0.23 | 0.23 | 91 | 1008.6 |
| 20260507024625 | 18 | 163 | 0.0 | 6.4 | 0.00 | 0.23 | 0.23 | 91 | 1008.1 |
| 20260507024457 | 18 | 163 | 0.0 | 0.0 | 0.00 | 0.23 | 0.23 | 91 | 1008.2 |
| 20260507023125 | 18 | 163 | 0.0 | 0.0 | 0.00 | 0.23 | 0.23 | 92 | 1008.2 |
| 20260507021625 | 18 | 160 | 1.6 | 0.0 | 0.00 | 0.23 | 0.23 | 92 | 1008.0 |
| 20260507020124 | 18 | 161 | 0.0 | 0.0 | 0.00 | 0.23 | 0.23 | 92 | 1008.2 |
| 20260507014624 | 18 | 161 | 0.0 | 0.0 | 0.00 | 0.23 | 0.23 | 92 | 1008.1 |
| 20260507014447 | 18 | 161 | 0.0 | 0.0 | 0.00 | 0.23 | 0.23 | 92 | 1008.2 |
| 20260507013124 | 18 | 161 | 0.0 | 0.0 | 0.00 | 0.23 | 0.23 | 91 | 1008.4 |
| 20260507011624 | 18 | 161 | 0.0 | 0.0 | 0.00 | 0.23 | 0.23 | 91 | 1008.8 |
| 20260507010124 | 18 | 161 | 0.0 | 1.6 | 0.00 | 0.23 | 0.23 | 90 | 1008.5 |
| 20260507004623 | 18 | 161 | 0.0 | 1.6 | 0.00 | 0.23 | 0.23 | 89 | 1008.4 |
| 20260507004448 | 18 | 161 | 0.0 | 0.0 | 0.00 | 0.23 | 0.23 | 89 | 1008.3 |
| 20260507003123 | 18 | 161 | 0.0 | 0.0 | 0.00 | 0.23 | 0.23 | 88 | 1008.1 |
| 20260507001623 | 19 | 161 | 0.0 | 0.0 | 0.00 | 0.23 | 0.23 | 87 | 1008.1 |
| 20260507000123 | 19 | 161 | 0.0 | 3.2 | 0.00 | 0.23 | 0.23 | 86 | 1007.9 |
| 20260506234623 | 20 | 161 | 0.0 | 3.2 | 0.00 | 0.23 | 0.23 | 86 | 1007.7 |
| 20260506234517 | 20 | 161 | 0.0 | 0.0 | 0.00 | 0.23 | 0.23 | 86 | 1007.8 |
| 20260506233122 | 20 | 161 | 0.0 | 6.4 | 0.00 | 0.23 | 0.23 | 85 | 1007.8 |
| 20260506231622 | 20 | 153 | 1.6 | 6.4 | 0.00 | 0.23 | 0.23 | 84 | 1007.6 |
| 20260506230122 | 20 | 180 | 0.0 | 14.5 | 0.00 | 0.23 | 0.23 | 83 | 1007.5 |
| 20260506224622 | 20 | 180 | 0.0 | 14.5 | 0.00 | 0.23 | 0.23 | 83 | 1007.3 |
| 20260506224506 | 20 | 180 | 0.0 | 6.4 | 0.00 | 0.23 | 0.23 | 83 | 1007.4 |
| 20260506223122 | 20 | 225 | 0.0 | 11.3 | 0.00 | 0.23 | 0.23 | 83 | 1007.5 |
| 20260506221621 | 20 | 253 | 0.0 | 11.3 | 0.00 | 0.23 | 0.23 | 82 | 1007.6 |
| 20260506220121 | 21 | 214 | 0.0 | 16.1 | 0.00 | 0.23 | 0.23 | 82 | 1007.4 |
| 20260506214621 | 21 | 333 | 1.6 | 16.1 | 0.00 | 0.23 | 0.23 | 82 | 1007.6 |
| 20260506214445 | 21 | 203 | 4.8 | 9.7 | 0.00 | 0.23 | 0.23 | 82 | 1007.7 |
| 20260506213121 | 21 | 142 | 3.2 | 17.7 | 0.00 | 0.23 | 0.23 | 81 | 1007.3 |
| 20260506211621 | 21 | 114 | 0.0 | 17.7 | 0.00 | 0.23 | 0.23 | 82 | 1007.3 |
| 20260506210121 | 21 | 152 | 6.4 | 14.5 | 0.00 | 0.23 | 0.23 | 81 | 1007.0 |
| 20260506204620 | 20 | 94 | 6.4 | 14.5 | 0.00 | 0.23 | 0.23 | 82 | 1007.0 |
| 20260506204519 | 20 | 198 | 1.6 | 12.9 | 0.00 | 0.23 | 0.23 | 82 | 1007.1 |
| 20260506203120 | 20 | 188 | 6.4 | 20.9 | 0.00 | 0.23 | 0.23 | 82 | 1007.0 |
| 20260506201620 | 20 | 238 | 1.6 | 20.9 | 0.00 | 0.23 | 0.23 | 83 | 1007.2 |
| 20260506200120 | 20 | 59 | 0.0 | 22.5 | 0.00 | 0.23 | 0.23 | 83 | 1007.1 |
| 20260506194620 | 20 | 188 | 3.2 | 22.5 | 0.00 | 0.23 | 0.23 | 83 | 1007.0 |
| 20260506194447 | 20 | 322 | 4.8 | 22.5 | 0.00 | 0.23 | 0.23 | 83 | 1007.0 |
| 20260506193119 | 20 | 130 | 9.7 | 16.1 | 0.00 | 0.23 | 0.23 | 83 | 1007.3 |
| 20260506191619 | 20 | 128 | 11.3 | 16.1 | 0.00 | 0.23 | 0.23 | 83 | 1007.6 |
| 20260506190119 | 20 | 144 | 1.6 | 20.9 | 0.00 | 0.23 | 0.23 | 83 | 1007.8 |
| 20260506184619 | 20 | 230 | 0.0 | 20.9 | 0.00 | 0.23 | 0.23 | 82 | 1007.7 |
| 20260506184510 | 20 | 230 | 3.2 | 14.5 | 0.00 | 0.23 | 0.23 | 82 | 1007.7 |
| 20260506183118 | 20 | 140 | 1.6 | 22.5 | 0.00 | 0.23 | 0.23 | 83 | 1007.8 |
| 20260506181618 | 20 | 78 | 11.3 | 22.5 | 0.00 | 0.23 | 0.23 | 83 | 1008.2 |
| 20260506180118 | 19 | 261 | 1.6 | 22.5 | 0.00 | 0.23 | 0.23 | 84 | 1008.4 |
| 20260506174618 | 19 | 262 | 3.2 | 22.5 | 0.00 | 0.23 | 0.23 | 86 | 1008.4 |
| 20260506174444 | 18 | 279 | 3.2 | 14.5 | 0.00 | 0.23 | 0.23 | 86 | 1008.4 |
| 20260506173118 | 18 | 177 | 3.2 | 22.5 | 0.00 | 0.23 | 0.23 | 88 | 1008.3 |
| 20260506171618 | 18 | 180 | 4.8 | 22.5 | 0.00 | 0.23 | 0.23 | 89 | 1008.6 |
| 20260506170118 | 17 | 175 | 1.6 | 29.0 | 0.03 | 0.23 | 0.23 | 91 | 1008.6 |
| 20260506164617 | 17 | 163 | 3.2 | 29.0 | 0.03 | 0.23 | 0.23 | 93 | 1008.7 |
| 20260506164457 | 17 | 146 | 8.0 | 19.3 | 0.00 | 0.23 | 0.23 | 93 | 1008.8 |
| 20260506163117 | 17 | 125 | 8.0 | 22.5 | 0.08 | 0.23 | 0.23 | 94 | 1008.8 |
| 20260506161617 | 17 | 198 | 6.4 | 22.5 | 0.08 | 0.23 | 0.23 | 95 | 1008.8 |
| 20260506160117 | 16 | 187 | 3.2 | 25.7 | 0.08 | 0.20 | 0.20 | 95 | 1009.2 |
| 20260506154616 | 16 | 236 | 3.2 | 25.7 | 0.08 | 0.20 | 0.20 | 94 | 1009.1 |
| 20260506154500 | 16 | 131 | 11.3 | 22.5 | 0.10 | 0.23 | 0.23 | 94 | 1009.1 |
| 20260506153116 | 16 | 138 | 14.5 | 14.5 | 0.13 | 0.15 | 0.15 | 94 | 1009.3 |
| 20260506151616 | 16 | 198 | 11.3 | 14.5 | 0.13 | 0.15 | 0.15 | 94 | 1009.8 |
| 20260506150116 | 16 | 167 | 9.7 | 16.1 | 0.13 | 0.13 | 0.13 | 94 | 1009.9 |
| 20260506144616 | 16 | 165 | 9.7 | 16.1 | 0.13 | 0.13 | 0.13 | 93 | 1010.0 |
| 20260506144502 | 16 | 155 | 6.4 | 16.1 | 0.13 | 0.13 | 0.13 | 93 | 1010.1 |
| 20260506143116 | 16 | 127 | 1.6 | 16.1 | 0.03 | 0.03 | 0.03 | 91 | 1009.9 |
| 20260506141615 | 16 | 154 | 1.6 | 16.1 | 0.03 | 0.03 | 0.03 | 90 | 1010.0 |
| 20260506140115 | 17 | 138 | 1.6 | 14.5 | 0.00 | 0.00 | 0.00 | 88 | 1010.2 |
| 20260506134615 | 17 | 121 | 1.6 | 14.5 | 0.00 | 0.00 | 0.00 | 84 | 1010.2 |
| 20260506134452 | 17 | 148 | 3.2 | 16.1 | 0.00 | 0.00 | 0.00 | 83 | 1010.3 |
| 20260506133115 | 18 | 163 | 0.0 | 20.9 | 0.00 | 0.00 | 0.00 | 79 | 1010.3 |
| 20260506131615 | 18 | 142 | 8.0 | 20.9 | 0.00 | 0.00 | 0.00 | 78 | 1010.0 |
| 20260506130115 | 18 | 140 | 6.4 | 17.7 | 0.00 | 0.00 | 0.00 | 77 | 1009.8 |
| 20260506124614 | 18 | 219 | 11.3 | 17.7 | 0.00 | 0.00 | 0.00 | 77 | 1009.6 |
| 20260506124446 | 18 | 170 | 4.8 | 14.5 | 0.00 | 0.00 | 0.00 | 77 | 1009.7 |
| 20260506123114 | 18 | 205 | 1.6 | 16.1 | 0.00 | 0.00 | 0.00 | 77 | 1009.8 |
| 20260506121614 | 18 | 205 | 0.0 | 16.1 | 0.00 | 0.00 | 0.00 | 77 | 1010.0 |